Voltar ao catálogo

DELTA 1 DEB

AtivoSSO
NORAD 21331·DEBRIS·🇺🇸 United States

Lançado Jun 12, 1975 de Vandenberg Space Force Base

Loading…

Próximas Passagens (próximas 24 horas)

TLE

AtualizadoSource: Space-Track

Época: Sep 14, 2026, 12:19 UTC

1 21331U 75052AZ  26257.51336671 -.00000012  00000-0  54406-4 0  9990
2 21331  99.6478  98.7489 0025401 238.9185 138.2758 13.39774191728846

Acompanhe DELTA 1 DEB em tempo real com AllMySat

Download on the App Store